COSMOS 2501 (702K)

Last updated on Oct. 24, 2020, 5:55 a.m. UTC

1 40315U 14075A   20297.71379660  .00000014  00000-0  00000-0 0  9994
2 40315  63.8476 262.2922 0017690 214.6197 358.1619  2.13101306 45905
UTC
Height (km)
Latitude
Longitude
Inclination
Orbital Period
UTC large
Height (km)
Speed (km/s)
/
Latitude / Longitude
Inclination (degrees)
Orbital Period (minutes)
Azimuth
Elevation
Range (km)
Doppler Factor
iOS Compass Heading
iOS Angle

Next 30 passes for location: Hong Kong

Rise time Rise Azimuth (degrees) Set time Set Azimuth (degrees) Duration Max altitude (degrees)

No matching passes for this satellites